Location: Malvern Link
(52.1333°N, 2.3000°W)
Time: 15:54:06
(UTC+00:00)

SO-50 - Pass Details

Date: 03 July 2022
Orbit: 585 x 698 km, 64.6° (Epoch: 11 August)

Event Time Altitude Azimuth Distance (km) Brightness Sun altitude
Exits shadow 01:08:50 13° 235° (SW) 1,865 ? -13.9°
Maximum altitude 01:13:00 67° 317° (NW) 735 ? -13.8°
Drops below altitude 10° 01:17:53 10° 41° (NE) 2,149 ? -13.6°
Sets 01:20:17 0° 44° (NE) 3,078 ? -13.5°
